Flag for Trinidad and Tobago Weather past 2 weeks in Port of Spain, Trinidad and Tobago

Now
79 °F

Passing clouds.


Feels Like: 82 °F
Forecast: 79 / 87 °F
Wind: 5 mph from East

Location: Piarco International Airport - Trinidad

Current Time: May 30, 2015 at 12:29:52 AM

Latest Report: May 29, 2015 at 11:00 PM


Visibility: N/A

Pressure: 29.92 "Hg

Humidity: 89%

Dew point: 75 °F

Location of Port of SpainLocation

Historic Weather in Port of Spain — Graph

°F

Port of Spain temperature yesterday

Maximum temperature yesterday: 88 °F (at 10:00 AM)
Minimum temperature yesterday: 77 °F (at 2:00 AM)
Average temperature yesterday: 82 °F

Past Weeks' High & Low Weather Summary

 TemperatureHumidityPressure
High93 °F (May 19, 1:00 PM)94% (May 19, 6:00 AM)30.04 "Hg (May 19, 6:00 AM)
Low72 °F (May 26, 5:00 AM)38% (May 26, 3:00 PM)29.83 "Hg (May 28, 4:00 PM)
Average83 °F71%29.94 "Hg
* Reported May 14 10:00 PM — May 29 10:00 PM, Port of Spain, Weather by CustomWeather, © 2015

Note: Actual official high and low records may vary slightly from our data, if they occured in-between our weather recording intervals... More about our weather records

Advertising

Port of Spain weather history for previous 24 hours

 ConditionsComfort  
Time TempWeatherWind HumidityBarometerVisibility
10:00 PM
Fri, May 29
79 °FPassing clouds.6 mph89%29.92 "HgN/A
9:00 PM79 °FPassing clouds.7 mph89%29.89 "HgN/A
8:00 PM79 °FPassing clouds.7 mph89%29.89 "HgN/A
7:00 PM81 °FPassing clouds.6 mph84%29.86 "Hg4 mi
6:00 PM82 °FPassing clouds.12 mph79%29.86 "Hg4 mi
5:00 PM82 °FSprinkles. Passing clouds.14 mph79%29.83 "Hg4 mi
3:00 PM82 °FSprinkles. Scattered clouds.16 mph84%29.86 "Hg5 mi
2:00 PM84 °FSprinkles. Scattered clouds.15 mph79%29.86 "Hg4 mi
1:00 PM88 °FScattered clouds.16 mph66%29.89 "HgN/A
12:00 PM88 °FScattered clouds.21 mph62%29.89 "HgN/A
11:00 AM88 °FScattered clouds.20 mph62%29.92 "HgN/A
10:00 AM88 °FPassing clouds.15 mph62%29.92 "HgN/A
9:00 AM86 °FScattered showers. Passing clouds.17 mph66%29.92 "HgN/A
8:00 AM82 °FScattered clouds.14 mph79%29.92 "HgN/A
7:00 AM81 °FPassing clouds.13 mph79%29.92 "HgN/A
6:00 AM79 °FPassing clouds.8 mph89%29.89 "HgN/A
5:00 AM79 °FPassing clouds.12 mph89%29.86 "HgN/A
4:00 AM79 °FPassing clouds.9 mph89%29.86 "HgN/A
3:00 AM79 °FPassing clouds.7 mph89%29.86 "HgN/A
2:00 AM77 °FPassing clouds.6 mph94%29.89 "HgN/A
1:00 AM81 °FScattered showers. Passing clouds.7 mph79%29.89 "HgN/A
12:00 AM81 °FPassing clouds.7 mph84%29.92 "HgN/A
Weather by CustomWeather, © 2015

See weather overviewHow to use our weather pages